Stewartville, MN

1:23 AM CST on February 26, 2017 (GMT -0600)
Rochester International

Weather History for KRST - September, 2013

Change the Weather History Date:

Friday, September 20, 2013

  Actual Average Record
Temperature  
Mean Temperature 56 °F 59 °F  
Max Temperature 66 °F 70 °F 92 °F (1908)
Min Temperature 46 °F 48 °F 28 °F (1991)
Degree Days  
Heating Degree Days 9 7  
Month to date heating degree days 70 85  
Since 1 July heating degree days 104 123  
Cooling Degree Days 0 1  
Month to date cooling degree days 91 45  
Year to date cooling degree days 647 570  
Growing Degree Days 8 (Base 50)    
Moisture  
Dew Point 51 °F    
Average Humidity 77    
Maximum Humidity 93    
Minimum Humidity 60    
Precipitation  
Precipitation T in 0.11 in 1.62 in (1986)
Month to date precipitation 0.84 2.36  
Year to date precipitation 35.54 26.55  
Snow  
Snow 0.00 in 0.00 in 0.00 in (2012)
Month to date snowfall 0.0 0.0  
Since 1 July snowfall 0.0 0.0  
Snow Depth 0.00 in    
Sea Level Pressure  
Sea Level Pressure 29.88 in    
Wind  
Wind Speed 13 mph (WNW)    
Max Wind Speed 24 mph    
Max Gust Speed 30 mph    
Visibility 10 miles    
Events      
T = Trace of Precipitation, MM = Missing Value Source: NWS Daily Summary

Daily Weather History Graph

Daily Weather History Graph

Search for Another Location

Airport or City:

Trip Planner

Search our weather history database for the weather conditions in past years. The results will help you decide how hot, cold, wet, or windy it might be!

Date:

Astronomy

Sep. 20, 2013 Rise Set
Actual Time 6:55 AM CDT 7:10 PM CDT
Civil Twilight 6:26 AM CDT 7:39 PM CDT
Nautical Twilight 5:52 AM CDT 8:13 PM CDT
Astronomical Twilight 5:17 AM CDT 8:47 PM CDT
Moon 7:39 PM CDT (9/20) 8:14 AM CDT (9/20)
Length of Visible Light 13h 12m
Length of Day
12h 15m
Full, 98% of the Moon is Illuminated
Sep 20
Full
Sep 26
Last Quarter
Oct 4
New
Oct 11
First Quarter
Oct 18
Full

Hourly Weather History & Observations

Time (CDT) Temp. Dew Point Humidity Pressure Visibility Wind Dir Wind Speed Gust Speed Precip Events Conditions
12:54 AM 64.0 °F 61.0 °F 90% 29.81 in 9.0 mi West 10.4 mph - N/A   Overcast
1:54 AM 63.0 °F 55.9 °F 78% 29.82 in 10.0 mi WNW 12.7 mph - N/A   Overcast
2:54 AM 61.0 °F 53.1 °F 75% 29.83 in 10.0 mi WNW 12.7 mph - N/A   Overcast
3:54 AM 59.0 °F 52.0 °F 78% 29.83 in 10.0 mi West 13.8 mph - N/A   Overcast
4:54 AM 57.0 °F 52.0 °F 83% 29.83 in 10.0 mi WNW 11.5 mph - N/A   Overcast
5:42 AM 57.2 °F 51.8 °F 82% 29.84 in 10.0 mi West 18.4 mph 24.2 mph N/A   Overcast
5:54 AM 55.9 °F 51.1 °F 84% 29.83 in 10.0 mi WNW 16.1 mph - N/A   Mostly Cloudy
6:04 AM 55.4 °F 51.8 °F 88% 29.85 in 10.0 mi WNW 11.5 mph - N/A   Partly Cloudy
6:54 AM 54.0 °F 51.1 °F 90% 29.86 in 10.0 mi West 11.5 mph - N/A   Scattered Clouds
7:01 AM 55.4 °F 51.8 °F 88% 29.87 in 10.0 mi West 12.7 mph - N/A   Mostly Cloudy
7:54 AM 55.0 °F 51.1 °F 86% 29.88 in 10.0 mi West 10.4 mph - N/A   Overcast
8:36 AM 55.4 °F 51.8 °F 88% 29.88 in 10.0 mi West 17.3 mph - N/A   Overcast
8:54 AM 55.0 °F 50.0 °F 83% 29.88 in 10.0 mi WNW 17.3 mph - N/A   Overcast
9:37 AM 55.4 °F 51.8 °F 88% 29.89 in 9.0 mi West 17.3 mph - N/A   Overcast
9:54 AM 57.0 °F 52.0 °F 83% 29.89 in 10.0 mi West 13.8 mph - N/A   Overcast
10:24 AM 55.4 °F 51.8 °F 88% 29.89 in 9.0 mi West 13.8 mph - N/A   Overcast
10:35 AM 57.2 °F 51.8 °F 82% 29.89 in 10.0 mi WNW 12.7 mph - N/A   Overcast
10:54 AM 57.9 °F 52.0 °F 81% 29.88 in 10.0 mi WNW 10.4 mph - 0.00 in   Overcast
11:54 AM 60.1 °F 52.0 °F 75% 29.88 in 10.0 mi WNW 16.1 mph - 0.00 in   Overcast
12:27 PM 62.6 °F 53.6 °F 72% 29.88 in 10.0 mi WNW 16.1 mph 23.0 mph N/A   Overcast
12:54 PM 62.1 °F 53.1 °F 72% 29.88 in 10.0 mi NW 18.4 mph 24.2 mph 0.00 in   Overcast
1:05 PM 60.8 °F 53.6 °F 77% 29.88 in 10.0 mi West 19.6 mph 23.0 mph N/A   Overcast
1:52 PM 62.6 °F 51.8 °F 68% 29.87 in 10.0 mi WNW 17.3 mph - N/A   Overcast
1:54 PM 62.1 °F 52.0 °F 70% 29.86 in 10.0 mi WNW 13.8 mph 23.0 mph N/A   Overcast
2:54 PM 63.0 °F 51.1 °F 65% 29.87 in 10.0 mi WNW 19.6 mph 25.3 mph N/A   Overcast
3:54 PM 64.9 °F 50.0 °F 58% 29.88 in 10.0 mi WNW 16.1 mph 23.0 mph N/A   Mostly Cloudy
4:54 PM 63.0 °F 48.0 °F 58% 29.88 in 10.0 mi WNW 13.8 mph 23.0 mph N/A   Overcast
5:54 PM 62.1 °F 48.0 °F 60% 29.88 in 10.0 mi WNW 9.2 mph - N/A   Overcast
6:54 PM 59.0 °F 46.9 °F 64% 29.90 in 10.0 mi WNW 16.1 mph - N/A   Overcast
7:54 PM 55.0 °F 46.9 °F 74% 29.92 in 10.0 mi WNW 13.8 mph - N/A   Clear
8:54 PM 53.1 °F 46.9 °F 80% 29.94 in 10.0 mi WNW 10.4 mph - N/A   Clear
9:54 PM 53.1 °F 46.9 °F 80% 29.94 in 10.0 mi WNW 9.2 mph - N/A   Overcast
10:54 PM 50.0 °F 46.0 °F 86% 29.95 in 10.0 mi West 10.4 mph - N/A   Partly Cloudy
11:54 PM 48.9 °F 45.0 °F 86% 29.95 in 10.0 mi WNW 8.1 mph - N/A   Partly Cloudy